TimeEST,TemperatureF,Dew PointF,Humidity,Sea Level PressureIn,VisibilityMPH,Wind Direction,Wind SpeedMPH,Gust SpeedMPH,PrecipitationIn,Events,Conditions,WindDirDegrees,DateUTC
12:52 AM,16.0,10.9,81,30.66,10.0,Calm,Calm,-,N/A,,Clear,0,2013-11-21 05:52:00
1:52 AM,15.1,10.0,80,30.68,10.0,Calm,Calm,-,N/A,,Clear,0,2013-11-21 06:52:00
2:52 AM,14.0,9.0,80,30.65,10.0,Calm,Calm,-,N/A,,Clear,0,2013-11-21 07:52:00
3:52 AM,14.0,10.0,84,30.64,10.0,Calm,Calm,-,N/A,,Clear,0,2013-11-21 08:52:00
4:52 AM,15.1,10.0,80,30.64,10.0,Calm,Calm,-,N/A,,Clear,0,2013-11-21 09:52:00
5:52 AM,14.0,9.0,80,30.66,10.0,Calm,Calm,-,N/A,,Clear,0,2013-11-21 10:52:00
6:52 AM,14.0,10.0,84,30.65,10.0,Calm,Calm,-,N/A,,Clear,0,2013-11-21 11:52:00
7:52 AM,15.1,10.9,84,30.64,10.0,Calm,Calm,-,N/A,,Clear,0,2013-11-21 12:52:00
8:52 AM,21.9,16.0,78,30.63,10.0,Calm,Calm,-,N/A,,Clear,0,2013-11-21 13:52:00
9:52 AM,27.0,18.0,69,30.59,10.0,Calm,Calm,-,N/A,,Clear,0,2013-11-21 14:52:00
10:52 AM,33.1,18.0,54,30.57,10.0,West,5.8,-,N/A,,Clear,260,2013-11-21 15:52:00
11:52 AM,37.0,8.1,30,30.55,10.0,WSW,11.5,-,N/A,,Clear,240,2013-11-21 16:52:00
12:52 PM,37.0,9.0,31,30.53,10.0,WNW,4.6,-,N/A,,Clear,300,2013-11-21 17:52:00
1:52 PM,39.0,10.0,30,30.49,10.0,WNW,3.5,-,N/A,,Clear,300,2013-11-21 18:52:00
2:52 PM,39.0,10.9,32,30.48,10.0,Calm,Calm,-,N/A,,Clear,0,2013-11-21 19:52:00
3:52 PM,37.0,12.0,36,30.47,10.0,Calm,Calm,-,N/A,,Clear,0,2013-11-21 20:52:00
4:52 PM,33.1,16.0,50,30.47,10.0,Calm,Calm,-,N/A,,Clear,0,2013-11-21 21:52:00
5:52 PM,30.9,19.0,61,30.45,10.0,Calm,Calm,-,N/A,,Clear,0,2013-11-21 22:52:00
6:52 PM,28.9,19.9,69,30.45,10.0,South,3.5,-,N/A,,Clear,190,2013-11-21 23:52:00
7:52 PM,30.0,19.0,64,30.44,10.0,Calm,Calm,-,N/A,,Scattered Clouds,0,2013-11-22 00:52:00
8:52 PM,27.0,19.0,72,30.43,10.0,Calm,Calm,-,N/A,,Clear,0,2013-11-22 01:52:00
9:52 PM,27.0,19.9,75,30.42,10.0,Calm,Calm,-,N/A,,Clear,0,2013-11-22 02:52:00
10:52 PM,27.0,18.0,69,30.40,10.0,Calm,Calm,-,N/A,,Scattered Clouds,0,2013-11-22 03:52:00
11:52 PM,25.0,19.0,78,30.38,10.0,WNW,3.5,-,N/A,,Clear,290,2013-11-22 04:52:00